Location: Hopewell Observatory
(38.8698°N, 77.6988°W)
Time: 00:02:32
(UTC-05:00)

Daily predictions for brighter satellites

Satellite Brightness Start Highest point End
(mag) Time Altitude Azimuth Time Altitude Azimuth Time Altitude Azimuth
USA 234 4.3 04:11:31 10° E 04:17:19 35° NNE 04:17:50 34° NNE
SeaSat 1 4.4 04:14:40 10° NE 04:16:40 23° NE 04:16:40 23° NE
Cosmos 2279 Rocket 4.3 04:27:09 63° ESE 04:27:09 63° ESE 04:32:43 10° SSE
CZ-4C R/B 3.0 04:28:03 43° ESE 04:28:03 43° ESE 04:33:20 10° NE
Cosmos 1980 Rocket 2.8 04:29:11 53° E 04:29:11 53° E 04:34:05 10° SE
Cosmos 2180 Rocket 4.5 04:46:29 46° N 04:48:32 82° E 04:54:47 10° S
IDEFIX/ARIANE 42P 4.1 04:52:25 10° NNE 04:57:12 35° E 05:01:58 10° SSE
Meteor 2-4 Rocket 3.7 04:57:00 47° N 04:58:36 76° E 05:04:10 10° SSE
Meteor 1-13 Rocket 4.2 05:05:25 62° NW 05:06:15 72° W 05:12:09 10° S
SL-16 R/B 3.3 05:04:54 18° N 05:08:45 41° ENE 05:14:04 10° SE
Meteor 1-11 Rocket 3.7 05:04:49 10° SSW 05:10:43 69° W 05:16:35 10° N
SKYMED 2 4.1 05:08:50 10° SSE 05:13:05 57° ENE 05:15:07 29° N
Cosmos 2322 Rocket 3.2 05:10:14 17° N 05:14:18 44° ENE 05:19:43 10° SE
Cosmos 2360 4.1 05:14:26 59° WNW 05:15:06 64° WSW 05:20:44 10° S
Nadezhda 4 Rocket 3.8 05:10:22 10° S 05:16:31 87° W 05:22:40 10° N
Feng Yun 1-1 Rocket 4.4 05:11:59 10° NNE 05:17:48 77° ESE 05:23:25 10° S
Cosmos 1538 Rocket 3.8 05:12:43 10° SSW 05:17:55 82° WNW 05:23:14 10° NNE
USA 267 3.8 05:20:12 10° NNE 05:26:01 36° NNW 05:27:03 34° NW
EO 1 Del DPAF 3.4 05:23:44 10° SSE 05:27:31 69° ENE 05:29:01 35° N
Cosmos 1697 Rocket 4.2 05:33:30 19° SW 05:33:30 19° SW 05:35:38 10° SSW
Meteor 1-4 Rocket 2.9 05:28:36 10° S 05:32:22 68° E 05:36:09 10° NNE
Meteor 1-5 Rocket 4.0 05:28:30 10° SSW 05:33:54 65° W 05:39:13 10° N
Cosmos 2082 Rocket 4.3 05:38:46 11° NNW 05:38:46 11° NNW 05:39:12 10° NNW
Meteor 2-20 Rocket 4.4 05:30:57 10° SSW 05:36:58 59° W 05:43:00 10° N
APEX 4.3 05:36:54 10° S 05:39:54 41° ESE 05:43:38 10° NE
Cosmos 1300 Rocket 3.7 05:37:25 10° SSW 05:41:34 47° W 05:45:45 10° N
Okean 1-7 Rocket 4.4 05:38:33 10° N 05:42:59 53° E 05:47:25 10° SSE
deb Kosmos-1763 3.9 05:40:35 10° SSW 05:44:17 67° WNW 05:48:01 10° NNE
Cosmos 1500 3.1 05:42:42 10° S 05:46:34 87° E 05:50:25 10° N
Landsat 4 4.3 05:43:08 10° S 05:46:20 37° WSW 05:46:20 37° WSW
Timation 2 Rocket 4.4 05:41:20 10° SW 05:47:53 46° WNW 05:54:29 10° NNE
RESURS DK-1 3.8 05:49:57 22° SW 05:49:57 22° SW 05:52:21 10° SSW
Cosmos 1025 Rocket 3.0 05:45:06 10° N 05:49:24 85° E 05:53:41 10° S
PAYLOAD A 4.1 05:47:21 10° N 05:52:43 65° WNW 05:57:58 10° SSW
Cosmos 1536 Rocket 4.4 05:53:45 29° W 05:53:45 29° W 05:57:14 10° SSW
SeaSat 1 3.5 05:52:44 10° N 05:56:29 24° NW 05:56:29 24° NW
Cosmos 1092 Rocket 3.9 05:51:41 10° SSW 05:57:41 59° W 06:03:45 10° N
USA 234 3.2 05:53:21 10° SE 05:59:55 79° SW 06:05:11 17° NW
Cosmos 1184 Rocket 3.0 05:57:41 10° N 06:00:56 72° E 06:04:15 10° SSE
COSMO-SKYMED 1 3.0 05:57:06 10° SSW 06:01:09 39° W 06:03:42 20° NW
CZ-4 R/B 3.8 06:00:38 10° NE 06:04:16 28° E 06:07:53 10° SSE
Cosmos 2195 Rocket 4.5 06:02:24 10° SSW 06:08:41 70° W 06:14:58 10° N
Okean-O 3.3 06:06:42 10° N 06:10:35 31° WNW 06:14:28 10° SW
CZ-2C R/B 2.3 06:05:53 10° N 06:10:37 59° WNW 06:15:12 10° SSW
Cosmos 2360 Rocket 2.9 06:05:10 10° NNW 06:10:44 53° ENE 06:16:15 10° SE
Cosmos 1066 Rocket 4.2 06:06:04 10° N 06:11:27 82° E 06:16:53 10° S
Cosmos 2026 Rocket 4.0 06:05:21 10° SSW 06:11:36 76° W 06:17:59 10° N
Cosmos 1655 Rocket 4.2 06:05:39 10° S 06:11:51 77° E 06:18:09 10° N
Cosmos 1980 Rocket 3.5 06:11:01 18° W 06:12:00 19° W 06:15:47 10° SW
GEOS 3 Rocket 3.9 06:06:55 10° NE 06:12:20 74° ESE 06:17:39 10° SSW
Ariane Rocket 4.0 06:10:13 10° NNE 06:15:08 49° E 06:20:02 10° S
CZ-4C R/B 3.0 06:13:20 16° W 06:16:38 29° NW 06:21:47 10° NNE
Okean 1 Rocket 3.8 06:13:36 10° SW 06:17:28 31° WNW 06:21:23 10° NNW
Cosmos 1666 3.4 06:15:04 10° S 06:18:50 58° E 06:22:36 10° NNE
Cosmos 2219 Rocket 4.5 06:15:50 10° N 06:19:48 19° NE 06:23:44 10° E
Cosmos 1553 Rocket 4.2 06:15:39 10° N 06:21:54 74° E 06:28:01 10° SSE
SJ-12 3.9 06:19:21 10° N 06:23:19 55° WNW 06:27:17 10° SSW
Cosmos 389 Rocket 2.7 06:19:42 10° S 06:23:20 78° E 06:26:56 10° NNE
Okean 2 4.0 06:20:13 10° NNW 06:23:57 34° W 06:27:40 10° SSW
Cosmos 1975 2.8 06:21:49 10° SSW 06:25:43 56° W 06:29:39 10° N
BREEZE-M DEB (TANK) 3.7 06:22:59 13° NW 06:28:28 30° N 06:30:56 10° ENE
SJ-7 4.3 06:27:32 10° N 06:31:37 81° WNW 06:35:43 10° SSW
IDEFIX/ARIANE 42P 3.4 06:32:19 10° NNW 06:36:37 27° WNW 06:40:55 10° WSW
Cosmos 1680 Rocket 3.7 06:32:07 10° SW 06:37:06 46° WNW 06:42:07 10° N
Cosmos 1892 Rocket 3.5 06:34:41 10° NNW 06:39:04 70° W 06:43:22 10° S
YAOGAN 1 3.8 06:35:05 10° NNE 06:39:17 47° E 06:43:26 10° S
AQUARIUS 4.2 06:35:25 10° NNE 06:39:56 86° WNW 06:44:26 10° SSW
CSL-04 Debris 4.2 06:39:13 10° NNE 06:44:42 85° WNW 06:50:09 10° SSW
ATLAS 5 CENTAUR R/B 4.2 06:40:26 10° N 06:45:04 23° NE 06:50:00 10° E
ATLAS CENTAUR R/B 1.2 06:42:47 10° SSW 06:46:31 79° ESE 06:50:11 10° NE
MSX 4.3 06:42:50 10° N 06:48:03 37° WNW 06:53:15 10° SW
Meteor 1-12 Rocket 4.4 06:44:02 10° SSW 06:49:36 54° WNW 06:55:10 10° N
Aureole 1 Rocket 3.2 06:47:32 10° S 06:50:27 53° ESE 06:53:44 10° NNE
SL-16 R/B 3.2 06:47:59 10° NW 06:52:35 26° WSW 06:57:12 10° SSW
IRAS Rocket 4.2 06:49:45 10° N 06:55:17 72° WNW 07:00:49 10° SSW
Cosmos 1371 Rocket 4.0 06:51:01 10° NNW 06:56:15 80° WSW 07:01:24 10° SSE
